sat.trackr.live / text

‹ back to catalog

FENGYUN 3F

NORAD 57490 · 2023-111A

PAYLOAD ACTIVE UNKNOWN

§ Identity

Operator
Country
PRC
Launch date
2023-08-03
Launch site
JSC
Launch vehicle
Mass (kg)
RCS (m²)

Purposes: earth_obs

External: N2YO · Heavens-Above · Gunter

§ Orbital elements

Epoch: 2026-05-25T03:26:32.371872Z

Period
101.41 min
Inclination
98.6841°
Eccentricity
0.0001436
Mean motion
14.19934420 rev/d
Perigee alt
824.5 km
Apogee alt
826.6 km
Semi-major
7,203.7 km
B*
3.4925e-5
RAAN
215.5803°
Arg perigee
110.0329°
Mean anomaly
250.1003°
Rev number
14,559

§ Raw data

FENGYUN 3F1 57490U 23111A   26145.14343023  .00000031  00000+0  34925-4 0  99912 57490  98.6841 215.5803 0001436 110.0329 250.1003 14.19934420145599

JSON: /api/v1/satellites/57490 · /tle

For live sub-satellite position, see the globe view (requires WebGL).

§ Visibility from observer

Set your observer location to see the next 7 days of passes ≥ 10°. The values pass through the URL so the page stays shareable.

No JS? Fill the form by hand. The geolocation button needs JavaScript.

§ Radio — SatNOGS DB

ModeDescriptionDownlinkUplink
AHRPT AHRPT 7.790 GHz
FM Mode S - TLM 2.246 GHz
FM Mode X - DPT dumps (active over China & Sweden) 8.213 GHz
BPSK S-band telemetry 2.265 GHz

4 transmitters · refreshed weekly from db.satnogs.org